This is the latest recevied weather packets stored in our database for station/object KC1TEM-13. If no packets are shown the sender has not sent any weather packets the latest 10 day(s).
| Time | Temp. | Humidity | Pressure | Rain* | Wind** | Luminosity | Snow |
|---|---|---|---|---|---|---|---|
| 1777586161 | 11.67° C | 89% | 1006.2 hPa | 0 mm | - | 37 W/m² | - |
| 1777585859 | 11.67° C | 90% | 1005.9 hPa | 0 mm | - | 63 W/m² | - |
| 1777585559 | 11.67° C | 90% | 1005.9 hPa | 0 mm | - | 72 W/m² | - |
| 1777585255 | 11.67° C | 90% | 1006.1 hPa | 0 mm | - | 74 W/m² | - |
| 1777584949 | 11.67° C | 90% | 1005.9 hPa | 0 mm | - | 89 W/m² | - |
| 1777584647 | 11.67° C | 90% | 1005.9 hPa | 0 mm | - | 75 W/m² | - |
| 1777584344 | 11.67° C | 91% | 1005.9 hPa | 0 mm | - | 96 W/m² | - |
| 1777584040 | 11.67° C | 92% | 1005.8 hPa | 0 mm | - | 124 W/m² | - |
| 1777583734 | 11.11° C | 93% | 1005.8 hPa | 0 mm | - | 141 W/m² | - |
| 1777583434 | 11.11° C | 93% | 1005.7 hPa | 0 mm | - | 156 W/m² | - |
| 1777583133 | 11.11° C | 93% | 1005.6 hPa | 0 mm | - | 114 W/m² | - |
| 1777582829 | 11.11° C | 93% | 1005.8 hPa | 0 mm | - | 107 W/m² | - |
| 1777582526 | 11.11° C | 93% | 1005.6 hPa | 0 mm | - | 87 W/m² | - |
| 1777582221 | 11.11° C | 93% | 1005.7 hPa | 0 mm | - | 90 W/m² | - |
| 1777581919 | 11.11° C | 93% | 1005.9 hPa | 0 mm | - | 85 W/m² | - |
| 1777581614 | 11.11° C | 92% | 1005.9 hPa | 0 mm | - | 77 W/m² | - |
| 1777581309 | 11.11° C | 93% | 1005.7 hPa | 0 mm | - | 75 W/m² | - |
| 1777581004 | 11.11° C | 92% | 1006.1 hPa | 0 mm | - | 82 W/m² | - |
| 1777580703 | 11.11° C | 92% | 1005.8 hPa | 0 mm | - | 102 W/m² | - |
| 1777580400 | 11.11° C | 93% | 1005.9 hPa | 0 mm | - | 105 W/m² | - |
| 1777580096 | 11.11° C | 93% | 1006.1 hPa | 0 mm | - | 90 W/m² | - |
| 1777579792 | 11.11° C | 93% | 1006.1 hPa | 0 mm | - | 74 W/m² | - |
| 1777579490 | 11.11° C | 93% | 1005.9 hPa | 0 mm | - | 70 W/m² | - |
| 1777579185 | 11.11° C | 93% | 1005.9 hPa | 0 mm | - | 50 W/m² | - |
| 1777578881 | 11.11° C | 93% | 1006.1 hPa | 0 mm | - | 42 W/m² | - |
* Rain latest hour (hover to see other rain measurements)
** Current wind speed in m/s (hover to see current wind gust speed)